Regional Weather Roundup
Issued by NWS Huntsville, AL

Home | Current Version | Previous Version | Text Only | Print | Product List | Glossary On
Versions: 1 2 3 4 5 6 7 8 9 10 11 12 13 14 15 16 17 18 19 20 21 22 23 24 25 26 27 28 29 30 31 32 33 34 35 36 37 38 39 40 41 42 43 44 45 46 47 48 49 50
000
ASUS44 KHUN 030810
RWRHUN

WEATHER ROUNDUP FOR THE TENNESSEE VALLEY
NATIONAL WEATHER SERVICE HUNTSVILLE AL
300 AM CDT THU SEP 03 2015

ALZ001>004-030900-
NORTHWEST ALABAMA

CITY           SKY/WX    TMP DP  RH WIND       PRES   REMARKS
BANKHEAD NF      N/A     73  73 100 CALM        N/A
SHOALS AIRPORT MOCLDY    74  71  91 CALM      30.01F FOG
SHOALS TVA RES   N/A     73 N/A N/A MISG        N/A
$$

ALZ005>007-016-030900-
NORTH CENTRAL ALABAMA

CITY           SKY/WX    TMP DP  RH WIND       PRES   REMARKS
DECATUR AP     CLOUDY    73  73 100 CALM      30.01R FOG
HUNTSVILLE AP  CLOUDY    75  72  90 CALM      30.01R FOG
HUN NWS/UAH      N/A     76  70  82 W2          N/A
MERIDIANVILLE  CLOUDY    72  68  88 CALM      30.02R
REDSTONE ARSN  CLOUDY    74  73  96 NW5       30.00R
VINEMONT AP    FAIR      70  70 100 CALM      30.05R FOG
$$

ALZ008>010-030900-
NORTHEAST ALABAMA

CITY           SKY/WX    TMP DP  RH WIND       PRES   REMARKS
ALBERTVILLE    CLOUDY    73  73 100 CALM      30.01R
FORT PAYNE     CLOUDY   N/A N/A N/A NE3       30.00F
SCOTTSBORO AP  CLOUDY    73  73 100 CALM      30.01S
SCOTTSBORO HCN   N/A     72 N/A N/A MISG        N/A
VALLEY HEAD      N/A     70 N/A N/A MISG        N/A
$$

TNZ076-096-097-030900-
SOUTHEASTERN MIDDLE TENNESSEE

CITY           SKY/WX    TMP DP  RH WIND       PRES   REMARKS
TULLAHOMA      CLEAR     72  68  88 CALM      30.04S
WINCHESTER     CLEAR     72  70  94 CALM      30.04R
$$

...SURROUNDING SITES...

CITY           SKY/WX    TMP DP  RH WIND       PRES   REMARKS
ATLANTA        CLOUDY    76  71  85 NW3       29.99F
ANNISTON       CLOUDY    74  71  91 CALM      30.00S
BIRMINGHAM     CLOUDY    76  74  93 CALM      30.02S
CHATTANOOGA    CLOUDY    75  71  87 CALM      30.00S
DALTON         CLOUDY    72  72 100 CALM      29.99R FOG
GADSDEN        CLOUDY    73  70  88 SW5       30.00R
GOLDEN TRNGL   CLOUDY    73  70  88 CALM      29.99R
HALEYVILLE     FAIR      73  73 100 CALM      30.05S FOG
JACKSON TN     CLEAR     69  68  96 CALM      30.00F
MEMPHIS        CLEAR     75  71  87 CALM      30.00S
NASHVILLE      MOCLDY    75  69  81 CALM      30.02S
OXFORD MS      FAIR      66  66 100 CALM      30.02S
ROME           CLOUDY    73  71  93 CALM      29.98F
SAVANNAH       CLOUDY    70  32  24 CALM      30.01S VSB 1/4
TUPELO         PTCLDY    73  72  96 CALM      29.99F
TUSCALOOSA     CLOUDY    76  75  97 CALM      29.99R FOG
$$

...GULF COAST WEATHER...

CITY           SKY/WX    TMP DP  RH WIND       PRES   REMARKS
GULFPORT       MOCLDY    75  73  93 CALM      29.96F
PASCAGOULA     PTCLDY    72  72 100 CALM      29.97F
MOBILE         CLEAR     76  74  93 CALM      29.98F
GULF SHORES    PTSUNNY   75  75  99 CALM      29.97F
DESTIN         MOCLDY    82  76  81 VRB3      29.96F
PANAMA CITY    PTCLDY    82  76  83 NW7       29.96S
APPALACHICOLA  PTCLDY    75  74  96 CALM      29.96S
$$



USA.gov is the U.S. government's official web portal to all federal, state and local government web resources and services.